Regional Weather Roundup
Issued by NWS

Home | Current Version | Previous Version | Graphics & Text | Print | Product List | Glossary On
Versions: 1 2 3 4 5 6 7 8 9 10 11 12 13 14 15 16 17 18 19 20 21 22 23 24 25 26 27 28 29 30 31 32 33 34 35 36 37 38 39 40 41 42 43 44 45 46 47 48 49 50
000
ASUS43 KMPX 020910
RWRMN
WEATHER ROUNDUP FOR MINNESOTA
NATIONAL WEATHER SERVICE TWIN CITIES/CHANHASSEN MN
300 AM CST MON MAR 02 2015


NOTE: "FAIR" INDICATES FEW OR NO CLOUDS BELOW 12,000 FEET WITH NO
SIGNIFICANT WEATHER AND/OR OBSTRUCTIONS TO VISIBILITY. N/A MEANS
CURRENT SKY AND/OR WEATHER CONDITIONS ARE NOT AVAILABLE.

MNZ060>063-068>070-021000-
   Twin Cities Metro

CITY           SKY/WX    TMP DP  RH WIND       PRES   REMARKS
TWIN CITIES    CLEAR     15   7  70 SW5       30.44S WCI   8
ST PAUL        CLEAR     14   7  73 NW9       30.45F WCI   2
CRYSTAL        CLEAR     13   7  77 CALM      30.43F
BLAINE         CLEAR     14   9  79 NW5       30.42F WCI   6
LAKEVILLE      CLEAR     10   7  85 W6        30.44S WCI   1
EDEN PRAIRIE   CLEAR     11   6  81 W5        30.44R WCI   3
SOUTH ST PAUL  CLEAR     17   8  68 NW7       30.44S WCI   7
LAKE ELMO      FAIR      14   9  79 NW5       30.43F WCI   6
$$
MNZ001>005-007-008-013>017-022>024-027-028-021000-
   Northwest Minnesota

CITY           SKY/WX    TMP DP  RH WIND       PRES   REMARKS
BEMIDJI        CLEAR      3   1  89 SW3       30.32S
HALLOCK        PTCLDY    -2  -8  78 S2        30.33F
ROSEAU         FAIR       0  -6  78 CALM      30.31F
WARROAD        PTCLDY     1  -2  85 W6        30.31S WCI -10
THIEF RVR FALL PTCLDY     3   1  92 CALM      30.33F
CROOKSTON      PTCLDY     1   0  92 S3        30.37S
FOSSTON        FAIR      -2  -6  84 S3        30.35R
DETROIT LAKES  PTCLDY     3   1  92 CALM      30.36S
MOORHEAD       PTCLDY     5   1  85 SW5       30.40S WCI  -4
PARK RAPIDS    PTCLDY     2  -4  76 CALM      30.33S
MAHNOMEN       FAIR      -1  -4  85 S7        30.35F WCI -14
$$
MNZ006-009>011-018-025>026-021000-
   North Central Minnesota

CITY           SKY/WX    TMP DP  RH WIND       PRES   REMARKS
BAUDETTE       CLEAR      2  -1  88 W6        30.29S WCI  -9
FLAG ISLAND    PTCLDY     1  -2  85 CALM      30.29S
INTL FALLS     CLEAR      2  -1  88 W3        30.29R
WASKISH        CLEAR      1   0  92 CALM      30.32F
BIG FORK       CLEAR      7   1  78 W3        30.31S
LONGVILLE      CLEAR      0  -4  85 SW3       30.35S
GRAND RAPIDS   CLEAR      7   1  78 W5        30.31S WCI  -2
CRANE LAKE     PTCLDY     7   3  85 CALM      30.31R
ORR            CLEAR      1  -2  85 CALM      30.27R
COOK           CLEAR      3   1  92 CALM      30.30R
WALKER         FAIR       5   2  84 SW3       30.34R
$$
MNZ012-019>021-037-021000-
   Northeast Minnesota

CITY           SKY/WX    TMP DP  RH WIND       PRES   REMARKS
DULUTH         CLEAR      8   3  80 W12       30.31R WCI  -7
HIBBING        FAIR       6   1  80 W6        30.31R WCI  -4
EVELETH        FAIR       5   3  92 W3        30.31S
DULUTH HARBOR  CLEAR     10   5  79 S8        30.39R WCI  -1
SILVER BAY     CLEAR     10   3  72 W5        30.29R WCI   2
GRAND MARAIS     N/A     12   3  67 W6        30.30R WCI   3
G MARAIS ARPRT PTCLDY     7  -2  66 W6        30.19R WCI  -3
$$
MNZ029>031-032-039>041-046>048-054>057-064-021000-
   West Central Minnesota

CITY           SKY/WX    TMP DP  RH WIND       PRES   REMARKS
FERGUS FALLS   CLEAR      3   0  85 S3        30.44F
MORRIS         PTCLDY     5   1  85 SW7       30.42S WCI  -7
ALEXANDRIA     PTCLDY     3   0  87 SW9       30.40R WCI -12
ELBOW LAKE     FAIR       3   1  90 SW5       30.40S WCI  -7
WADENA         MOCLDY     0  -4  85 SW5       30.37S WCI -10
APPLETON       PTCLDY     5   1  85 SW6       30.46R WCI  -6
BENSON         PTCLDY     7   1  78 CALM      30.44S
ORTONVILLE     MOCLDY     7   1  78 SW7       30.44S WCI  -5
MADISON        PTCLDY     7   1  78 W3        30.46F
WILLMAR        FAIR       3   0  85 W5        30.45S WCI  -6
$$
MNZ033>034-036-042>043-049>051-058-059-021000-
   Central Minnesota

CITY           SKY/WX    TMP DP  RH WIND       PRES   REMARKS
ST CLOUD       CLEAR      6   2  83 CALM      30.41F
SAUK CENTRE    FAIR       4   1  88 SW3       30.42R
PAYNESVILLE    PTCLDY     2   0  92 SW6       30.43S WCI  -9
PINE RIVER     PTCLDY    -2  -6  84 CALM      30.38S
BRAINERD       CLEAR      1  -2  87 S6        30.38S WCI -10
STAPLES        PTCLDY     1  -2  85 CALM      30.37S
LONG PRAIRIE   FAIR       3   1  92 S3        30.39S
LITTLE FALLS   PTCLDY     3  -2  78 CALM      30.41F
LITCHFIELD     PTCLDY     9   9 100 SW3       30.44R
BUFFALO        CLEAR     10   7  85 N3        30.43F
MAPLE LAKE     CLEAR      9   6  89 W3        30.43S
$$
MNZ037-044-045-052-053-021000-
   East Central Minnesota

CITY           SKY/WX    TMP DP  RH WIND       PRES   REMARKS
PRINCETON      CLEAR      7   3  85 CALM      30.41F
MORA           CLEAR      7   3  85 CALM      30.42S
CAMBRIDGE      CLEAR     10   3  72 NW1       30.40F
RUSH CITY      CLEAR      8   4  84 CALM      30.41F
MOOSE LAKE     CLEAR      9   3  78 CALM      30.36S
HINCKLEY       FAIR       9   5  85 W6        30.40S WCI  -1
CLOQUET        CLEAR      7   1  78 W7        30.34R WCI  -5
MCGREGOR       CLEAR      9   5  85 W3        30.38R
$$
MNZ071>073-080-081-089-090-097-098-021000-
   Southwest Minnesota

CITY           SKY/WX    TMP DP  RH WIND       PRES   REMARKS
MONTEVIDEO     PTCLDY     9   5  85 W6        30.47R WCI  -1
GRANITE FALLS  PTCLDY     5   2  88 W6        30.48S WCI  -6
CANBY          PTCLDY     8   4  84 W5        30.46S WCI  -1
MARSHALL       CLEAR      7   0  72 W6        30.46F WCI  -3
REDWOOD FALLS  PTCLDY     9   6  88 NW6       30.46S WCI  -1
OLIVIA         PTCLDY     9   5  85 W5        30.45S WCI   0
PIPESTONE      PTCLDY     7   5  92 CALM      30.41F
WINDOM         PTCLDY     7   3  85 CALM      30.44S
WORTHINGTON    CLEAR     10   0  61 NW6       30.44F WCI   1
JACKSON        PTCLDY    10   5  79 NW8       30.43F WCI  -1
TRACY          PTCLDY    12   6  77 W6        30.45S WCI   3
SLAYTON        PTCLDY     6   1  80 CALM      30.43F
$$
MNZ065>067-074>077-082>085-091>093-021000-
   South Central Minnesota

CITY           SKY/WX    TMP DP  RH WIND       PRES   REMARKS
MANKATO        CLEAR     12   7  79 NW7       30.45S WCI   2
NEW ULM        CLEAR      7   3  85 NW5       30.45F WCI  -2
ST JAMES       CLEAR      9   7  92 W6        30.47S WCI  -1
FAIRMONT       PTCLDY     9   3  78 NW7       30.43F WCI  -3
GLENCOE        CLEAR     10   8  89 W5        30.45R WCI   2
FARIBAULT      CLEAR     10   7  85 W6        30.44S WCI   1
OWATONNA       CLEAR      7   3  85 W6        30.44R WCI  -3
WASECA         CLEAR      5   1  85 W6        30.46S WCI  -6
ALBERT LEA     PTCLDY    10   7  85 NW5       30.43S WCI   2
$$
MNZ078>079-086>088-094>096-021000-
   Southeast Minnesota

CITY           SKY/WX    TMP DP  RH WIND       PRES   REMARKS
ROCHESTER      CLEAR     10   5  80 NW10      30.40F WCI  -4
RED WING       CLEAR     16   7  67 NW6       30.44S WCI   7
STANTON        CLEAR     12   8  81 W6        30.43S WCI   3
DODGE CENTER   PTCLDY    12   9  85 W8        30.41S WCI   1
WINONA         PTCLDY    19  12  73 W5        30.44R WCI  13
AUSTIN         CLEAR     10   7  85 NW9       30.43R WCI  -2
PRESTON        CLEAR     13   8  80 NW14      30.39F WCI  -2
$$
ABBREVIATIONS USED IN REMARKS
   TC - TEMPERATURES IN CELSIUS
  WCI - WIND CHILL INDEX
   HX - HEAT INDEX
  VSB - VISIBILITY
$$


USA.gov is the U.S. government's official web portal to all federal, state and local government web resources and services.